Time,TemperatureF,DewpointF,PressureIn,WindDirection,WindDirectionDegrees,WindSpeedMPH,WindSpeedGustMPH,Humidity,HourlyPrecipIn,Conditions,Clouds,dailyrainin,SoftwareType,DateUTC
2013-04-27 00:00:00,46.2,34.7,30.35,SSE,157,0.0,2.0,64,0.00,,,0.00,WUHU21623XXSP,2013-04-27 04:00:00,
2013-04-27 00:01:00,46.2,34.7,30.35,SSE,157,1.6,2.0,64,0.00,,,0.00,WUHU21623XXSP,2013-04-27 04:01:00,
2013-04-27 00:06:00,46.2,34.7,30.35,SSE,157,0.0,1.6,64,0.00,,,0.00,WUHU21623XXSP,2013-04-27 04:06:00,
2013-04-27 00:11:00,46.0,34.9,30.35,SSE,157,0.0,1.3,65,0.00,,,0.00,WUHU21623XXSP,2013-04-27 04:11:00,
2013-04-27 00:16:00,45.9,34.7,30.35,SSE,157,0.0,1.3,65,0.00,,,0.00,WUHU21623XXSP,2013-04-27 04:16:00,
2013-04-27 00:21:00,45.7,34.6,30.35,SSE,157,0.0,0.0,65,0.00,,,0.00,WUHU21623XXSP,2013-04-27 04:21:00,
2013-04-27 00:26:00,45.7,34.6,30.35,SSE,157,0.0,0.0,65,0.00,,,0.00,WUHU21623XXSP,2013-04-27 04:26:00,
2013-04-27 00:31:00,45.5,34.4,30.35,SSE,157,0.0,0.0,65,0.00,,,0.00,WUHU21623XXSP,2013-04-27 04:31:00,
2013-04-27 00:36:00,45.3,34.2,30.35,SSE,157,0.0,0.0,65,0.00,,,0.00,WUHU21623XXSP,2013-04-27 04:36:00,
2013-04-27 00:41:00,45.1,34.4,30.35,SSE,157,0.0,0.0,66,0.00,,,0.00,WUHU21623XXSP,2013-04-27 04:41:00,
2013-04-27 00:46:00,45.1,34.4,30.35,South,180,0.0,0.0,66,0.00,,,0.00,WUHU21623XXSP,2013-04-27 04:46:00,
2013-04-27 00:51:00,45.1,34.4,30.35,SSE,157,0.0,0.0,66,0.00,,,0.00,WUHU21623XXSP,2013-04-27 04:51:00,
2013-04-27 00:56:00,45.0,34.6,30.35,SSE,157,0.0,1.3,67,0.00,,,0.00,WUHU21623XXSP,2013-04-27 04:56:00,
2013-04-27 01:01:00,45.0,34.6,30.35,SSE,157,0.0,1.3,67,0.00,,,0.00,WUHU21623XXSP,2013-04-27 05:01:00,
2013-04-27 01:07:00,45.0,34.6,30.35,SSE,157,0.0,0.0,67,0.00,,,0.00,WUHU21623XXSP,2013-04-27 05:07:00,
2013-04-27 01:12:00,44.8,34.4,30.35,SSE,157,0.0,0.0,67,0.00,,,0.00,WUHU21623XXSP,2013-04-27 05:12:00,
2013-04-27 01:17:00,44.8,34.8,30.35,SSE,157,0.0,0.0,68,0.00,,,0.00,WUHU21623XXSP,2013-04-27 05:17:00,
2013-04-27 01:22:00,44.4,34.7,30.35,SSE,157,0.0,0.0,68,0.00,,,0.00,WUHU21623XXSP,2013-04-27 05:22:00,
2013-04-27 01:27:00,44.4,34.5,30.35,SSE,157,0.0,0.0,68,0.00,,,0.00,WUHU21623XXSP,2013-04-27 05:27:00,
2013-04-27 01:32:00,44.4,34.5,30.35,SSE,157,0.0,0.0,68,0.00,,,0.00,WUHU21623XXSP,2013-04-27 05:32:00,
2013-04-27 01:37:00,44.2,34.3,30.34,SSE,157,0.0,0.0,68,0.00,,,0.00,WUHU21623XXSP,2013-04-27 05:37:00,
2013-04-27 01:42:00,44.2,34.7,30.34,SSE,157,0.0,0.0,69,0.00,,,0.00,WUHU21623XXSP,2013-04-27 05:42:00,
2013-04-27 01:47:00,44.1,34.5,30.34,SSE,157,0.0,0.0,69,0.00,,,0.00,WUHU21623XXSP,2013-04-27 05:47:00,
2013-04-27 01:52:00,43.9,34.4,30.34,SSE,157,0.0,0.0,69,0.00,,,0.00,WUHU21623XXSP,2013-04-27 05:52:00,
2013-04-27 01:57:00,43.7,34.2,30.34,SSE,157,0.0,0.0,69,0.00,,,0.00,WUHU21623XXSP,2013-04-27 05:57:00,
2013-04-27 02:02:00,43.5,34.4,30.34,SSE,157,2.7,2.7,70,0.00,,,0.00,WUHU21623XXSP,2013-04-27 06:02:00,
2013-04-27 02:07:00,43.3,34.3,30.34,SSE,157,0.0,2.7,70,0.00,,,0.00,WUHU21623XXSP,2013-04-27 06:07:00,
2013-04-27 02:12:00,43.3,34.3,30.34,SSE,157,0.0,0.0,70,0.00,,,0.00,WUHU21623XXSP,2013-04-27 06:12:00,
2013-04-27 02:17:00,43.3,34.3,30.34,SSE,157,0.0,0.0,70,0.00,,,0.00,WUHU21623XXSP,2013-04-27 06:17:00,
2013-04-27 02:22:00,43.2,34.1,30.34,SSE,157,0.0,0.0,70,0.00,,,0.00,WUHU21623XXSP,2013-04-27 06:22:00,
2013-04-27 02:27:00,43.0,34.0,30.34,SSE,157,0.0,0.0,70,0.00,,,0.00,WUHU21623XXSP,2013-04-27 06:27:00,
2013-04-27 02:32:00,43.0,34.3,30.34,SSE,157,1.6,1.6,71,0.00,,,0.00,WUHU21623XXSP,2013-04-27 06:32:00,
2013-04-27 02:37:00,43.0,34.3,30.34,SSE,157,0.0,3.8,71,0.00,,,0.00,WUHU21623XXSP,2013-04-27 06:37:00,
2013-04-27 02:42:00,43.0,34.6,30.34,SSE,157,0.0,3.8,72,0.00,,,0.00,WUHU21623XXSP,2013-04-27 06:42:00,
2013-04-27 02:47:00,43.0,34.6,30.34,SSE,157,0.0,0.0,72,0.00,,,0.00,WUHU21623XXSP,2013-04-27 06:47:00,
2013-04-27 02:52:00,43.0,34.6,30.34,SSE,157,0.0,0.0,72,0.00,,,0.00,WUHU21623XXSP,2013-04-27 06:52:00,
2013-04-27 02:57:00,43.0,34.6,30.34,SSE,157,0.0,3.6,72,0.00,,,0.00,WUHU21623XXSP,2013-04-27 06:57:00,
2013-04-27 03:02:00,43.0,34.6,30.33,South,180,2.2,3.6,72,0.00,,,0.00,WUHU21623XXSP,2013-04-27 07:02:00,
2013-04-27 03:07:00,43.0,34.6,30.33,South,180,0.0,2.5,72,0.00,,,0.00,WUHU21623XXSP,2013-04-27 07:07:00,
2013-04-27 03:12:00,43.0,34.6,30.34,South,180,0.0,2.5,72,0.00,,,0.00,WUHU21623XXSP,2013-04-27 07:12:00,
2013-04-27 03:17:00,43.0,34.6,30.33,South,180,0.0,0.0,72,0.00,,,0.00,WUHU21623XXSP,2013-04-27 07:17:00,
2013-04-27 03:22:00,43.0,34.6,30.33,South,180,0.9,0.9,72,0.00,,,0.00,WUHU21623XXSP,2013-04-27 07:22:00,
2013-04-27 03:27:00,43.0,34.6,30.33,SSE,157,0.0,6.7,72,0.00,,,0.00,WUHU21623XXSP,2013-04-27 07:27:00,
2013-04-27 03:32:00,43.0,34.6,30.33,SSE,157,0.0,6.7,72,0.00,,,0.00,WUHU21623XXSP,2013-04-27 07:32:00,
2013-04-27 03:37:00,43.0,34.9,30.33,South,180,3.4,3.4,73,0.00,,,0.00,WUHU21623XXSP,2013-04-27 07:37:00,
2013-04-27 03:41:00,43.0,34.9,30.33,South,180,3.4,3.4,73,0.00,,,0.00,WUHU21623XXSP,2013-04-27 07:41:00,
2013-04-27 03:47:00,43.0,34.9,30.33,SSE,157,1.8,3.4,73,0.00,,,0.00,WUHU21623XXSP,2013-04-27 07:47:00,
2013-04-27 03:51:00,43.0,34.9,30.33,SSE,157,3.6,3.6,73,0.00,,,0.00,WUHU21623XXSP,2013-04-27 07:51:00,
2013-04-27 03:56:00,43.0,34.9,30.33,SSE,157,0.0,3.6,73,0.00,,,0.00,WUHU21623XXSP,2013-04-27 07:56:00,
2013-04-27 04:01:00,42.6,34.6,30.33,SSE,157,0.0,0.0,73,0.00,,,0.00,WUHU21623XXSP,2013-04-27 08:01:00,
2013-04-27 04:06:00,42.6,34.6,30.34,SSE,157,0.0,0.0,73,0.00,,,0.00,WUHU21623XXSP,2013-04-27 08:06:00,
2013-04-27 04:11:00,42.6,34.6,30.33,SSE,157,0.0,0.0,74,0.00,,,0.00,WUHU21623XXSP,2013-04-27 08:11:00,
2013-04-27 04:16:00,42.6,34.9,30.33,SSE,157,0.0,0.0,74,0.00,,,0.00,WUHU21623XXSP,2013-04-27 08:16:00,
2013-04-27 04:21:00,42.4,34.9,30.33,SSE,157,0.0,0.0,74,0.00,,,0.00,WUHU21623XXSP,2013-04-27 08:21:00,
2013-04-27 04:26:00,42.4,34.7,30.32,SSE,157,0.0,0.0,74,0.00,,,0.00,WUHU21623XXSP,2013-04-27 08:26:00,
2013-04-27 04:31:00,42.4,34.7,30.32,SSE,157,0.0,0.0,74,0.00,,,0.00,WUHU21623XXSP,2013-04-27 08:31:00,
2013-04-27 04:36:00,42.1,34.4,30.32,South,180,0.0,0.0,74,0.00,,,0.00,WUHU21623XXSP,2013-04-27 08:36:00,
2013-04-27 04:41:00,42.1,34.4,30.32,SSE,157,1.6,1.6,74,0.00,,,0.00,WUHU21623XXSP,2013-04-27 08:41:00,
2013-04-27 04:46:00,42.1,34.4,30.32,South,180,4.3,4.3,74,0.00,,,0.00,WUHU21623XXSP,2013-04-27 08:46:00,
2013-04-27 04:51:00,42.1,34.4,30.32,SSE,157,1.1,4.3,74,0.00,,,0.00,WUHU21623XXSP,2013-04-27 08:51:00,
2013-04-27 04:56:00,42.1,34.7,30.32,SSE,157,0.0,4.0,75,0.00,,,0.00,WUHU21623XXSP,2013-04-27 08:56:00,
2013-04-27 05:01:00,42.1,34.4,30.33,SSE,157,0.0,1.1,74,0.00,,,0.00,WUHU21623XXSP,2013-04-27 09:01:00,
2013-04-27 05:06:00,42.1,34.4,30.33,SSE,157,0.0,0.0,74,0.00,,,0.00,WUHU21623XXSP,2013-04-27 09:06:00,
2013-04-27 05:11:00,42.1,34.4,30.32,SSE,157,0.0,0.0,74,0.00,,,0.00,WUHU21623XXSP,2013-04-27 09:11:00,
2013-04-27 05:16:00,42.1,34.4,30.33,SSE,157,0.0,0.0,74,0.00,,,0.00,WUHU21623XXSP,2013-04-27 09:16:00,
2013-04-27 05:21:00,42.1,34.4,30.32,South,180,0.0,0.0,74,0.00,,,0.00,WUHU21623XXSP,2013-04-27 09:21:00,
2013-04-27 05:26:00,42.1,34.4,30.33,South,180,0.0,0.0,74,0.00,,,0.00,WUHU21623XXSP,2013-04-27 09:26:00,
2013-04-27 05:31:00,41.9,34.2,30.32,South,180,0.0,2.0,74,0.00,,,0.00,WUHU21623XXSP,2013-04-27 09:31:00,
2013-04-27 05:36:00,41.9,34.5,30.32,SSE,157,2.7,2.7,75,0.00,,,0.00,WUHU21623XXSP,2013-04-27 09:36:00,
2013-04-27 05:41:00,42.1,34.7,30.33,SSE,157,1.6,2.7,75,0.00,,,0.00,WUHU21623XXSP,2013-04-27 09:41:00,
2013-04-27 05:46:00,42.1,34.7,30.32,SSE,157,2.0,2.7,75,0.00,,,0.00,WUHU21623XXSP,2013-04-27 09:46:00,
2013-04-27 05:51:00,42.1,34.4,30.32,SSE,157,0.0,2.0,74,0.00,,,0.00,WUHU21623XXSP,2013-04-27 09:51:00,
2013-04-27 05:56:00,42.1,34.4,30.33,SSE,157,0.0,1.3,74,0.00,,,0.00,WUHU21623XXSP,2013-04-27 09:56:00,
2013-04-27 06:01:00,42.1,34.4,30.32,SSE,157,2.0,2.7,74,0.00,,,0.00,WUHU21623XXSP,2013-04-27 10:01:00,
2013-04-27 06:06:00,42.1,34.7,30.32,SSE,157,2.0,2.7,75,0.00,,,0.00,WUHU21623XXSP,2013-04-27 10:06:00,
2013-04-27 06:11:00,41.9,34.5,30.32,SSE,157,1.8,2.0,75,0.00,,,0.00,WUHU21623XXSP,2013-04-27 10:11:00,
2013-04-27 06:16:00,41.9,34.5,30.32,South,180,1.6,2.9,75,0.00,,,0.00,WUHU21623XXSP,2013-04-27 10:16:00,
2013-04-27 06:21:00,41.9,34.5,30.32,SSE,157,0.0,2.9,75,0.00,,,0.00,WUHU21623XXSP,2013-04-27 10:21:00,
2013-04-27 06:26:00,41.9,34.5,30.32,South,180,1.6,2.5,75,0.00,,,0.00,WUHU21623XXSP,2013-04-27 10:26:00,
2013-04-27 06:31:00,42.1,34.7,30.32,South,180,0.0,1.6,75,0.00,,,0.00,WUHU21623XXSP,2013-04-27 10:31:00,
2013-04-27 06:36:00,42.1,34.7,30.32,South,180,2.2,2.2,75,0.00,,,0.00,WUHU21623XXSP,2013-04-27 10:36:00,
2013-04-27 06:41:00,42.1,34.4,30.32,South,180,0.0,2.2,74,0.00,,,0.00,WUHU21623XXSP,2013-04-27 10:41:00,
2013-04-27 06:46:00,42.1,34.4,30.32,South,180,0.0,2.2,74,0.00,,,0.00,WUHU21623XXSP,2013-04-27 10:46:00,
2013-04-27 06:51:00,42.1,34.4,30.32,South,180,1.1,1.1,74,0.00,,,0.00,WUHU21623XXSP,2013-04-27 10:51:00,
2013-04-27 06:56:00,42.1,34.4,30.32,South,180,0.0,1.1,74,0.00,,,0.00,WUHU21623XXSP,2013-04-27 10:56:00,
2013-04-27 07:01:00,42.1,34.4,30.32,South,180,1.6,1.6,74,0.00,,,0.00,WUHU21623XXSP,2013-04-27 11:01:00,
2013-04-27 07:06:00,42.1,34.4,30.32,South,180,0.0,1.6,74,0.00,,,0.00,WUHU21623XXSP,2013-04-27 11:06:00,
2013-04-27 07:11:00,41.9,34.5,30.32,South,180,0.0,1.1,75,0.00,,,0.00,WUHU21623XXSP,2013-04-27 11:11:00,
2013-04-27 07:16:00,41.7,34.3,30.32,South,180,0.9,0.9,75,0.00,,,0.00,WUHU21623XXSP,2013-04-27 11:16:00,
2013-04-27 07:21:00,41.7,34.3,30.33,South,180,1.1,1.8,75,0.00,,,0.00,WUHU21623XXSP,2013-04-27 11:21:00,
2013-04-27 07:26:00,41.9,34.5,30.33,South,180,2.0,2.0,75,0.00,,,0.00,WUHU21623XXSP,2013-04-27 11:26:00,
2013-04-27 07:31:00,41.9,34.8,30.33,South,180,1.6,2.0,76,0.00,,,0.00,WUHU21623XXSP,2013-04-27 11:31:00,
2013-04-27 07:36:00,42.1,35.0,30.33,South,180,2.7,2.7,76,0.00,,,0.00,WUHU21623XXSP,2013-04-27 11:36:00,
2013-04-27 07:41:00,42.4,35.4,30.33,South,180,2.0,2.9,76,0.00,,,0.00,WUHU21623XXSP,2013-04-27 11:41:00,
2013-04-27 07:46:00,42.6,35.6,30.33,South,180,2.0,2.9,76,0.00,,,0.00,WUHU21623XXSP,2013-04-27 11:46:00,
2013-04-27 07:51:00,43.0,35.6,30.33,South,180,0.2,2.5,75,0.00,,,0.00,WUHU21623XXSP,2013-04-27 11:51:00,
2013-04-27 07:56:00,43.5,36.1,30.33,SSE,157,2.2,2.5,75,0.00,,,0.00,WUHU21623XXSP,2013-04-27 11:56:00,
2013-04-27 08:01:00,43.7,35.9,30.33,SSE,157,3.1,3.1,74,0.00,,,0.00,WUHU21623XXSP,2013-04-27 12:01:00,
2013-04-27 08:06:00,44.2,36.4,30.33,SSE,157,2.2,3.1,74,0.00,,,0.00,WUHU21623XXSP,2013-04-27 12:06:00,
2013-04-27 08:11:00,44.8,37.0,30.33,South,180,1.3,3.1,74,0.00,,,0.00,WUHU21623XXSP,2013-04-27 12:11:00,
2013-04-27 08:16:00,45.1,37.0,30.33,South,180,0.0,2.5,73,0.00,,,0.00,WUHU21623XXSP,2013-04-27 12:16:00,
2013-04-27 08:21:00,45.3,37.2,30.34,South,180,1.3,1.3,73,0.00,,,0.00,WUHU21623XXSP,2013-04-27 12:21:00,
2013-04-27 08:26:00,46.0,37.5,30.34,SSW,202,1.8,1.8,72,0.00,,,0.00,WUHU21623XXSP,2013-04-27 12:26:00,
2013-04-27 08:31:00,46.2,37.4,30.33,SSW,202,2.0,2.0,71,0.00,,,0.00,WUHU21623XXSP,2013-04-27 12:31:00,
2013-04-27 08:36:00,46.8,37.5,30.34,SSW,202,0.9,2.0,70,0.00,,,0.00,WUHU21623XXSP,2013-04-27 12:36:00,
2013-04-27 08:41:00,47.3,38.0,30.33,SSW,202,2.0,2.0,70,0.00,,,0.00,WUHU21623XXSP,2013-04-27 12:41:00,
2013-04-27 08:46:00,47.8,38.1,30.33,South,180,1.3,2.0,69,0.00,,,0.00,WUHU21623XXSP,2013-04-27 12:46:00,
2013-04-27 08:51:00,48.4,38.6,30.34,SSW,202,5.4,5.4,69,0.00,,,0.00,WUHU21623XXSP,2013-04-27 12:51:00,
2013-04-27 08:56:00,48.9,38.8,30.34,SSW,202,0.0,5.4,68,0.00,,,0.00,WUHU21623XXSP,2013-04-27 12:56:00,
2013-04-27 09:01:00,49.5,39.3,30.34,SSE,157,7.8,7.8,68,0.00,,,0.00,WUHU21623XXSP,2013-04-27 13:01:00,
2013-04-27 09:06:00,49.8,39.3,30.33,South,180,2.7,7.8,67,0.00,,,0.00,WUHU21623XXSP,2013-04-27 13:06:00,
2013-04-27 09:11:00,50.5,39.6,30.34,South,180,0.7,7.8,66,0.00,,,0.00,WUHU21623XXSP,2013-04-27 13:11:00,
2013-04-27 09:16:00,51.1,40.1,30.34,SSE,157,2.2,4.5,66,0.00,,,0.00,WUHU21623XXSP,2013-04-27 13:16:00,
2013-04-27 09:21:00,51.6,39.8,30.34,SSE,157,4.7,4.7,65,0.00,,,0.00,WUHU21623XXSP,2013-04-27 13:21:00,
2013-04-27 09:26:00,52.2,40.3,30.33,SSE,157,1.3,5.4,64,0.00,,,0.00,WUHU21623XXSP,2013-04-27 13:26:00,
2013-04-27 09:31:00,52.7,40.5,30.33,SSE,157,1.3,5.4,64,0.00,,,0.00,WUHU21623XXSP,2013-04-27 13:31:00,
2013-04-27 09:36:00,52.9,40.4,30.33,SSW,202,0.0,1.3,63,0.00,,,0.00,WUHU21623XXSP,2013-04-27 13:36:00,
2013-04-27 09:41:00,53.4,40.7,30.33,SSE,157,2.5,3.1,62,0.00,,,0.00,WUHU21623XXSP,2013-04-27 13:41:00,
2013-04-27 09:48:00,54.1,41.2,30.32,SSE,157,6.3,6.3,61,0.00,,,0.00,WUHU21623XXSP,2013-04-27 13:48:00,
2013-04-27 09:53:00,54.5,41.1,30.32,SSE,157,5.8,6.3,60,0.00,,,0.00,WUHU21623XXSP,2013-04-27 13:53:00,
2013-04-27 09:58:00,55.2,40.6,30.32,SSE,157,3.6,5.8,58,0.00,,,0.00,WUHU21623XXSP,2013-04-27 13:58:00,
2013-04-27 10:03:00,55.6,40.8,30.32,SSW,202,3.4,6.9,58,0.00,,,0.00,WUHU21623XXSP,2013-04-27 14:03:00,
2013-04-27 10:08:00,55.9,41.3,30.32,SSW,202,4.5,6.9,57,0.00,,,0.00,WUHU21623XXSP,2013-04-27 14:08:00,
2013-04-27 10:13:00,56.5,40.7,30.32,SW,225,4.5,4.5,56,0.00,,,0.00,WUHU21623XXSP,2013-04-27 14:13:00,
2013-04-27 10:18:00,56.5,40.5,30.31,SSW,202,4.3,6.5,55,0.00,,,0.00,WUHU21623XXSP,2013-04-27 14:18:00,
2013-04-27 10:23:00,57.0,41.0,30.31,SSE,157,2.5,6.5,55,0.00,,,0.00,WUHU21623XXSP,2013-04-27 14:23:00,
2013-04-27 10:28:00,57.6,41.0,30.31,SSE,157,2.2,4.3,54,0.00,,,0.00,WUHU21623XXSP,2013-04-27 14:28:00,
2013-04-27 10:33:00,57.9,41.4,30.31,SSE,157,2.7,5.4,54,0.00,,,0.00,WUHU21623XXSP,2013-04-27 14:33:00,
2013-04-27 10:38:00,58.3,41.7,30.31,SSE,157,5.1,5.4,54,0.00,,,0.00,WUHU21623XXSP,2013-04-27 14:38:00,
2013-04-27 10:43:00,58.8,41.7,30.31,SSE,157,2.9,7.2,53,0.00,,,0.00,WUHU21623XXSP,2013-04-27 14:43:00,
2013-04-27 10:48:00,58.8,42.2,30.31,SSE,157,6.7,7.2,54,0.00,,,0.00,WUHU21623XXSP,2013-04-27 14:48:00,
2013-04-27 10:53:00,59.2,42.0,30.31,South,180,0.0,6.7,53,0.00,,,0.00,WUHU21623XXSP,2013-04-27 14:53:00,
2013-04-27 10:58:00,59.5,42.4,30.31,South,180,4.0,6.7,53,0.00,,,0.00,WUHU21623XXSP,2013-04-27 14:58:00,
2013-04-27 11:03:00,60.1,41.9,30.30,South,180,3.4,4.0,51,0.00,,,0.00,WUHU21623XXSP,2013-04-27 15:03:00,
2013-04-27 11:08:00,60.4,42.2,30.31,SSE,157,0.7,4.0,51,0.00,,,0.00,WUHU21623XXSP,2013-04-27 15:08:00,
2013-04-27 11:13:00,60.6,42.4,30.31,South,180,3.1,3.8,51,0.00,,,0.00,WUHU21623XXSP,2013-04-27 15:13:00,
2013-04-27 11:18:00,61.2,42.4,30.30,South,180,8.1,8.1,50,0.00,,,0.00,WUHU21623XXSP,2013-04-27 15:18:00,
2013-04-27 11:23:00,61.3,41.8,30.30,South,180,8.1,8.1,50,0.00,,,0.00,WUHU21623XXSP,2013-04-27 15:23:00,
2013-04-27 11:28:00,61.5,42.7,30.31,SSE,157,2.7,8.1,50,0.00,,,0.00,WUHU21623XXSP,2013-04-27 15:28:00,
2013-04-27 11:33:00,61.9,43.1,30.30,SSE,157,2.5,4.3,50,0.00,,,0.00,WUHU21623XXSP,2013-04-27 15:33:00,
2013-04-27 11:38:00,62.2,43.4,30.31,SSE,157,3.8,4.3,50,0.00,,,0.00,WUHU21623XXSP,2013-04-27 15:38:00,
2013-04-27 11:43:00,62.8,43.9,30.30,South,180,5.6,5.6,50,0.00,,,0.00,WUHU21623XXSP,2013-04-27 15:43:00,
2013-04-27 11:48:00,63.1,43.6,30.30,South,180,0.0,5.6,49,0.00,,,0.00,WUHU21623XXSP,2013-04-27 15:48:00,
2013-04-27 11:53:00,63.3,43.2,30.29,SSE,157,3.8,3.8,48,0.00,,,0.00,WUHU21623XXSP,2013-04-27 15:53:00,
2013-04-27 11:58:00,63.9,42.5,30.29,South,180,0.0,4.3,46,0.00,,,0.00,WUHU21623XXSP,2013-04-27 15:58:00,
2013-04-27 12:03:00,64.0,42.1,30.29,SSE,157,4.7,4.7,46,0.00,,,0.00,WUHU21623XXSP,2013-04-27 16:03:00,
2013-04-27 12:08:00,64.6,42.3,30.29,SSE,157,7.8,7.8,45,0.00,,,0.00,WUHU21623XXSP,2013-04-27 16:08:00,
2013-04-27 12:13:00,64.9,42.4,30.29,South,180,4.0,7.8,45,0.00,,,0.00,WUHU21623XXSP,2013-04-27 16:13:00,
2013-04-27 12:18:00,65.1,42.0,30.29,SSE,157,4.3,7.8,43,0.00,,,0.00,WUHU21623XXSP,2013-04-27 16:18:00,
2013-04-27 12:23:00,65.5,42.3,30.29,SSE,157,6.5,6.5,43,0.00,,,0.00,WUHU21623XXSP,2013-04-27 16:23:00,
2013-04-27 12:28:00,65.8,43.2,30.28,South,180,0.0,6.5,44,0.00,,,0.00,WUHU21623XXSP,2013-04-27 16:28:00,
2013-04-27 12:33:00,66.2,43.4,30.28,South,180,6.5,6.5,42,0.00,,,0.00,WUHU21623XXSP,2013-04-27 16:33:00,
2013-04-27 12:38:00,66.4,41.3,30.28,South,180,7.6,7.6,40,0.00,,,0.00,WUHU21623XXSP,2013-04-27 16:38:00,
2013-04-27 12:43:00,66.7,41.7,30.28,South,180,6.5,7.8,40,0.00,,,0.00,WUHU21623XXSP,2013-04-27 16:43:00,
2013-04-27 12:48:00,66.7,40.2,30.27,SSE,157,4.3,8.7,38,0.00,,,0.00,WUHU21623XXSP,2013-04-27 16:48:00,
2013-04-27 12:53:00,66.9,39.6,30.27,SSE,157,7.2,8.7,37,0.00,,,0.00,WUHU21623XXSP,2013-04-27 16:53:00,
2013-04-27 12:58:00,67.3,41.4,30.27,SE,135,5.4,7.2,39,0.00,,,0.00,WUHU21623XXSP,2013-04-27 16:58:00,
2013-04-27 13:03:00,67.3,41.4,30.27,SE,135,0.0,7.2,39,0.00,,,0.00,WUHU21623XXSP,2013-04-27 17:03:00,
2013-04-27 13:08:00,67.8,40.4,30.27,South,180,6.0,6.0,37,0.00,,,0.00,WUHU21623XXSP,2013-04-27 17:08:00,
2013-04-27 13:13:00,68.2,41.5,30.27,SSE,157,5.1,6.3,38,0.00,,,0.00,WUHU21623XXSP,2013-04-27 17:13:00,
2013-04-27 13:18:00,68.2,40.7,30.26,South,180,4.9,6.3,37,0.00,,,0.00,WUHU21623XXSP,2013-04-27 17:18:00,
2013-04-27 13:23:00,68.4,41.6,30.26,South,180,0.0,4.9,38,0.00,,,0.00,WUHU21623XXSP,2013-04-27 17:23:00,
2013-04-27 13:28:00,68.7,41.2,30.26,South,180,7.2,7.2,37,0.00,,,0.00,WUHU21623XXSP,2013-04-27 17:28:00,
2013-04-27 13:33:00,68.7,40.5,30.26,SSE,157,5.1,11.2,36,0.00,,,0.00,WUHU21623XXSP,2013-04-27 17:33:00,
2013-04-27 13:38:00,68.9,40.7,30.26,SSE,157,2.0,11.2,36,0.00,,,0.00,WUHU21623XXSP,2013-04-27 17:38:00,
2013-04-27 13:43:00,69.1,39.3,30.26,South,180,8.1,8.1,34,0.00,,,0.00,WUHU21623XXSP,2013-04-27 17:43:00,
2013-04-27 13:48:00,69.3,39.5,30.26,South,180,4.3,8.1,34,0.00,,,0.00,WUHU21623XXSP,2013-04-27 17:48:00,
2013-04-27 13:53:00,69.3,38.8,30.25,SSE,157,2.2,4.5,33,0.00,,,0.00,WUHU21623XXSP,2013-04-27 17:53:00,
2013-04-27 13:58:00,69.6,40.6,30.25,SSE,157,4.7,5.1,35,0.00,,,0.00,WUHU21623XXSP,2013-04-27 17:58:00,
2013-04-27 14:03:00,69.6,40.6,30.25,South,180,4.0,5.1,35,0.00,,,0.00,WUHU21623XXSP,2013-04-27 18:03:00,
2013-04-27 14:08:00,70.0,40.2,30.25,SSE,157,9.4,9.4,34,0.00,,,0.00,WUHU21623XXSP,2013-04-27 18:08:00,
2013-04-27 14:13:00,70.5,39.9,30.25,SSE,157,1.1,9.4,33,0.00,,,0.00,WUHU21623XXSP,2013-04-27 18:13:00,
2013-04-27 14:18:00,70.7,40.8,30.24,SE,135,8.1,8.1,34,0.00,,,0.00,WUHU21623XXSP,2013-04-27 18:18:00,
2013-04-27 14:23:00,71.1,40.4,30.24,SSE,157,2.9,8.1,33,0.00,,,0.00,WUHU21623XXSP,2013-04-27 18:23:00,
2013-04-27 14:28:00,71.2,40.5,30.24,South,180,5.1,5.6,33,0.00,,,0.00,WUHU21623XXSP,2013-04-27 18:28:00,
2013-04-27 14:33:00,71.2,41.3,30.24,South,180,2.5,8.5,34,0.00,,,0.00,WUHU21623XXSP,2013-04-27 18:33:00,
2013-04-27 14:38:00,71.2,39.8,30.24,ESE,112,8.3,8.5,32,0.00,,,0.00,WUHU21623XXSP,2013-04-27 18:38:00,
2013-04-27 14:43:00,72.1,39.8,30.24,NNE,22,8.9,8.9,31,0.00,,,0.00,WUHU21623XXSP,2013-04-27 18:43:00,
2013-04-27 14:48:00,72.3,40.0,30.24,SE,135,7.6,8.9,31,0.00,,,0.00,WUHU21623XXSP,2013-04-27 18:48:00,
2013-04-27 14:53:00,73.0,40.5,30.24,SSE,157,3.4,8.3,31,0.00,,,0.00,WUHU21623XXSP,2013-04-27 18:53:00,
2013-04-27 14:58:00,73.0,39.8,30.24,SSE,157,5.8,8.7,30,0.00,,,0.00,WUHU21623XXSP,2013-04-27 18:58:00,
2013-04-27 15:03:00,73.0,39.8,30.24,SSE,157,4.0,8.7,30,0.00,,,0.00,WUHU21623XXSP,2013-04-27 19:03:00,
2013-04-27 15:08:00,72.9,39.7,30.24,SSW,202,2.9,6.9,30,0.00,,,0.00,WUHU21623XXSP,2013-04-27 19:08:00,
2013-04-27 15:13:00,72.7,40.3,30.24,South,180,15.2,15.2,31,0.00,,,0.00,WUHU21623XXSP,2013-04-27 19:13:00,
2013-04-27 15:18:00,72.7,39.5,30.24,South,180,5.4,15.2,30,0.00,,,0.00,WUHU21623XXSP,2013-04-27 19:18:00,
2013-04-27 15:23:00,72.7,39.5,30.24,SSW,202,2.2,8.7,30,0.00,,,0.00,WUHU21623XXSP,2013-04-27 19:23:00,
2013-04-27 15:28:00,72.9,39.7,30.23,SSE,157,6.7,8.7,30,0.00,,,0.00,WUHU21623XXSP,2013-04-27 19:28:00,
2013-04-27 15:33:00,73.0,39.8,30.23,South,180,8.3,8.3,30,0.00,,,0.00,WUHU21623XXSP,2013-04-27 19:33:00,
2013-04-27 15:38:00,73.0,40.5,30.23,SSE,157,2.0,8.3,31,0.00,,,0.00,WUHU21623XXSP,2013-04-27 19:38:00,
2013-04-27 15:43:00,73.6,40.3,30.23,SSE,157,7.2,7.2,30,0.00,,,0.00,WUHU21623XXSP,2013-04-27 19:43:00,
2013-04-27 15:48:00,73.8,40.4,30.22,SSE,157,2.5,7.2,30,0.00,,,0.00,WUHU21623XXSP,2013-04-27 19:48:00,
2013-04-27 15:53:00,73.6,39.2,30.22,SE,135,4.0,8.3,29,0.00,,,0.00,WUHU21623XXSP,2013-04-27 19:53:00,
2013-04-27 15:58:00,74.1,39.7,30.22,South,180,5.6,8.3,29,0.00,,,0.00,WUHU21623XXSP,2013-04-27 19:58:00,
2013-04-27 16:03:00,74.1,39.7,30.22,SE,135,2.0,6.9,29,0.00,,,0.00,WUHU21623XXSP,2013-04-27 20:03:00,
2013-04-27 16:08:00,74.3,39.9,30.22,South,180,2.9,2.9,29,0.00,,,0.00,WUHU21623XXSP,2013-04-27 20:08:00,
2013-04-27 16:13:00,74.3,38.9,30.22,SSE,157,8.1,8.1,28,0.00,,,0.00,WUHU21623XXSP,2013-04-27 20:13:00,
2013-04-27 16:18:00,74.5,39.0,30.21,ESE,112,0.0,8.1,28,0.00,,,0.00,WUHU21623XXSP,2013-04-27 20:18:00,
2013-04-27 16:23:00,74.7,39.2,30.21,SE,135,5.1,5.1,28,0.00,,,0.00,WUHU21623XXSP,2013-04-27 20:23:00,
2013-04-27 16:28:00,75.0,39.5,30.21,SSE,157,2.9,9.2,28,0.00,,,0.00,WUHU21623XXSP,2013-04-27 20:28:00,
2013-04-27 16:33:00,75.0,38.5,30.20,SE,135,4.9,9.2,27,0.00,,,0.00,WUHU21623XXSP,2013-04-27 20:33:00,
2013-04-27 16:38:00,75.0,39.5,30.20,SE,135,3.1,4.9,28,0.00,,,0.00,WUHU21623XXSP,2013-04-27 20:38:00,
2013-04-27 16:43:00,75.4,37.8,30.20,South,180,7.4,7.4,26,0.00,,,0.00,WUHU21623XXSP,2013-04-27 20:43:00,
2013-04-27 16:48:00,75.2,38.6,30.20,SE,135,2.9,7.4,27,0.00,,,0.00,WUHU21623XXSP,2013-04-27 20:48:00,
2013-04-27 16:53:00,75.0,38.5,30.20,SSE,157,2.9,6.7,27,0.00,,,0.00,WUHU21623XXSP,2013-04-27 20:53:00,
2013-04-27 16:58:00,74.5,37.0,30.19,SSE,157,1.1,6.5,26,0.00,,,0.00,WUHU21623XXSP,2013-04-27 20:58:00,
2013-04-27 17:03:00,74.3,37.9,30.19,ESE,112,8.7,8.7,27,0.00,,,0.00,WUHU21623XXSP,2013-04-27 21:03:00,
2013-04-27 17:08:00,74.5,37.0,30.19,South,180,4.5,8.7,26,0.00,,,0.00,WUHU21623XXSP,2013-04-27 21:08:00,
2013-04-27 17:13:00,74.3,36.8,30.19,ESE,112,0.0,8.7,26,0.00,,,0.00,WUHU21623XXSP,2013-04-27 21:13:00,
2013-04-27 17:18:00,74.5,37.0,30.19,South,180,2.9,6.0,26,0.00,,,0.00,WUHU21623XXSP,2013-04-27 21:18:00,
2013-04-27 17:23:00,74.3,36.8,30.19,SSE,157,2.7,6.0,26,0.00,,,0.00,WUHU21623XXSP,2013-04-27 21:23:00,
2013-04-27 17:28:00,74.1,35.7,30.19,South,180,2.7,8.3,25,0.00,,,0.00,WUHU21623XXSP,2013-04-27 21:28:00,
2013-04-27 17:33:00,73.9,35.5,30.18,ESE,112,2.2,9.2,25,0.00,,,0.00,WUHU21623XXSP,2013-04-27 21:33:00,
2013-04-27 17:38:00,73.9,35.5,30.19,SSE,157,0.0,9.2,25,0.00,,,0.00,WUHU21623XXSP,2013-04-27 21:38:00,
2013-04-27 17:43:00,74.1,36.7,30.18,SSE,157,1.1,4.5,26,0.00,,,0.00,WUHU21623XXSP,2013-04-27 21:43:00,
2013-04-27 17:48:00,74.1,36.7,30.18,SE,135,0.4,4.5,26,0.00,,,0.00,WUHU21623XXSP,2013-04-27 21:48:00,
2013-04-27 17:53:00,74.3,35.8,30.18,South,180,7.4,7.4,25,0.00,,,0.00,WUHU21623XXSP,2013-04-27 21:53:00,
2013-04-27 17:58:00,74.5,36.0,30.18,South,180,1.8,7.4,25,0.00,,,0.00,WUHU21623XXSP,2013-04-27 21:58:00,
2013-04-27 18:03:00,74.5,36.0,30.18,SSE,157,5.1,6.3,25,0.00,,,0.00,WUHU21623XXSP,2013-04-27 22:03:00,
2013-04-27 18:08:00,74.1,35.7,30.18,SSE,157,2.9,8.5,25,0.00,,,0.00,WUHU21623XXSP,2013-04-27 22:08:00,
2013-04-27 18:13:00,74.1,35.7,30.18,SSE,157,10.3,10.3,25,0.00,,,0.00,WUHU21623XXSP,2013-04-27 22:13:00,
2013-04-27 18:18:00,73.9,35.5,30.18,SSE,157,8.1,10.3,25,0.00,,,0.00,WUHU21623XXSP,2013-04-27 22:18:00,
2013-04-27 18:23:00,73.9,35.5,30.18,SE,135,4.9,8.1,25,0.00,,,0.00,WUHU21623XXSP,2013-04-27 22:23:00,
2013-04-27 18:28:00,73.4,35.1,30.17,SE,135,8.1,8.1,25,0.00,,,0.00,WUHU21623XXSP,2013-04-27 22:28:00,
2013-04-27 18:33:00,73.2,33.9,30.17,SE,135,9.2,9.2,24,0.00,,,0.00,WUHU21623XXSP,2013-04-27 22:33:00,
2013-04-27 18:38:00,73.0,34.8,30.17,ESE,112,7.6,9.2,25,0.00,,,0.00,WUHU21623XXSP,2013-04-27 22:38:00,
2013-04-27 18:43:00,72.5,34.3,30.17,South,180,2.9,9.2,25,0.00,,,0.00,WUHU21623XXSP,2013-04-27 22:43:00,
2013-04-27 18:48:00,72.1,35.0,30.17,SSE,157,2.9,6.7,26,0.00,,,0.00,WUHU21623XXSP,2013-04-27 22:48:00,
2013-04-27 18:53:00,71.4,34.4,30.16,NE,45,0.0,7.4,26,0.00,,,0.00,WUHU21623XXSP,2013-04-27 22:53:00,
2013-04-27 18:58:00,71.4,34.4,30.16,SE,135,3.6,7.6,26,0.00,,,0.00,WUHU21623XXSP,2013-04-27 22:58:00,
2013-04-27 19:03:00,71.2,35.3,30.16,South,180,2.7,7.6,27,0.00,,,0.00,WUHU21623XXSP,2013-04-27 23:03:00,
2013-04-27 19:08:00,70.5,33.6,30.16,SE,135,4.9,6.7,26,0.00,,,0.00,WUHU21623XXSP,2013-04-27 23:08:00,
2013-04-27 19:13:00,70.3,33.6,30.16,NE,45,7.2,7.2,27,0.00,,,0.00,WUHU21623XXSP,2013-04-27 23:13:00,
2013-04-27 19:17:00,69.8,34.0,30.16,SE,135,4.9,7.2,27,0.00,,,0.00,WUHU21623XXSP,2013-04-27 23:17:00,
2013-04-27 19:22:00,69.1,33.4,30.16,South,180,1.8,7.4,27,0.00,,,0.00,WUHU21623XXSP,2013-04-27 23:22:00,
2013-04-27 19:27:00,68.7,35.1,30.16,SSE,157,2.0,7.4,29,0.00,,,0.00,WUHU21623XXSP,2013-04-27 23:27:00,
2013-04-27 19:32:00,68.2,34.6,30.15,South,180,2.5,2.5,29,0.00,,,0.00,WUHU21623XXSP,2013-04-27 23:32:00,
2013-04-27 19:37:00,67.3,33.8,30.15,SSE,157,6.9,6.9,29,0.00,,,0.00,WUHU21623XXSP,2013-04-27 23:37:00,
2013-04-27 19:42:00,66.7,34.4,30.15,South,180,9.2,9.2,30,0.00,,,0.00,WUHU21623XXSP,2013-04-27 23:42:00,
2013-04-27 19:47:00,66.4,34.1,30.15,South,180,3.1,9.2,30,0.00,,,0.00,WUHU21623XXSP,2013-04-27 23:47:00,
2013-04-27 19:52:00,65.5,34.4,30.15,South,180,3.6,5.1,31,0.00,,,0.00,WUHU21623XXSP,2013-04-27 23:52:00,
2013-04-27 19:57:00,65.1,34.4,30.15,SSE,157,2.0,7.2,32,0.00,,,0.00,WUHU21623XXSP,2013-04-27 23:57:00,
2013-04-27 20:02:00,64.8,34.3,30.15,SSE,157,2.5,7.2,32,0.00,,,0.00,WUHU21623XXSP,2013-04-28 00:02:00,
2013-04-27 20:07:00,64.2,34.4,30.15,South,180,4.0,5.1,33,0.00,,,0.00,WUHU21623XXSP,2013-04-28 00:07:00,
2013-04-27 20:12:00,64.0,34.9,30.15,South,180,2.2,5.1,34,0.00,,,0.00,WUHU21623XXSP,2013-04-28 00:12:00,
2013-04-27 20:17:00,63.7,34.6,30.15,South,180,7.4,7.4,34,0.00,,,0.00,WUHU21623XXSP,2013-04-28 00:17:00,
2013-04-27 20:22:00,63.1,34.8,30.15,South,180,2.9,7.4,35,0.00,,,0.00,WUHU21623XXSP,2013-04-28 00:22:00,
2013-04-27 20:27:00,62.8,35.2,30.15,South,180,2.5,2.9,36,0.00,,,0.00,WUHU21623XXSP,2013-04-28 00:27:00,
2013-04-27 20:32:00,62.2,35.5,30.15,South,180,1.1,2.5,37,0.00,,,0.00,WUHU21623XXSP,2013-04-28 00:32:00,
2013-04-27 20:37:00,61.5,35.5,30.15,South,180,0.0,5.6,38,0.00,,,0.00,WUHU21623XXSP,2013-04-28 00:37:00,
2013-04-27 20:42:00,61.0,35.8,30.15,South,180,0.0,5.6,39,0.00,,,0.00,WUHU21623XXSP,2013-04-28 00:42:00,
2013-04-27 20:47:00,60.4,36.0,30.15,South,180,2.5,2.7,40,0.00,,,0.00,WUHU21623XXSP,2013-04-28 00:47:00,
2013-04-27 20:52:00,59.5,35.8,30.14,South,180,0.0,2.5,41,0.00,,,0.00,WUHU21623XXSP,2013-04-28 00:52:00,
2013-04-27 20:57:00,58.8,35.7,30.15,South,180,0.0,2.5,42,0.00,,,0.00,WUHU21623XXSP,2013-04-28 00:57:00,
2013-04-27 21:02:00,58.6,35.5,30.15,South,180,2.5,2.5,42,0.00,,,0.00,WUHU21623XXSP,2013-04-28 01:02:00,
2013-04-27 21:07:00,57.7,35.3,30.16,South,180,0.0,2.5,43,0.00,,,0.00,WUHU21623XXSP,2013-04-28 01:07:00,
2013-04-27 21:12:00,57.4,35.5,30.15,South,180,2.7,2.7,44,0.00,,,0.00,WUHU21623XXSP,2013-04-28 01:12:00,
2013-04-27 21:17:00,56.8,35.6,30.15,South,180,0.0,2.7,45,0.00,,,0.00,WUHU21623XXSP,2013-04-28 01:17:00,
2013-04-27 21:22:00,56.3,35.1,30.15,South,180,0.0,4.3,45,0.00,,,0.00,WUHU21623XXSP,2013-04-28 01:22:00,
2013-04-27 21:27:00,55.9,34.9,30.15,South,180,0.0,4.3,44,0.00,,,0.00,WUHU21623XXSP,2013-04-28 01:27:00,
2013-04-27 21:32:00,55.6,33.9,30.16,South,180,0.0,0.0,44,0.00,,,0.00,WUHU21623XXSP,2013-04-28 01:32:00,
2013-04-27 21:37:00,55.2,33.5,30.16,South,180,0.0,0.0,44,0.00,,,0.00,WUHU21623XXSP,2013-04-28 01:37:00,
2013-04-27 21:42:00,55.0,33.4,30.16,South,180,0.0,0.0,44,0.00,,,0.00,WUHU21623XXSP,2013-04-28 01:42:00,
2013-04-27 21:47:00,54.7,33.0,30.16,South,180,0.0,0.0,44,0.00,,,0.00,WUHU21623XXSP,2013-04-28 01:47:00,
2013-04-27 21:52:00,54.3,32.7,30.16,South,180,0.0,0.0,44,0.00,,,0.00,WUHU21623XXSP,2013-04-28 01:52:00,
2013-04-27 21:57:00,54.1,33.1,30.15,South,180,0.0,0.0,44,0.00,,,0.00,WUHU21623XXSP,2013-04-28 01:57:00,
2013-04-27 22:02:00,53.8,32.4,30.15,South,180,0.0,0.0,45,0.00,,,0.00,WUHU21623XXSP,2013-04-28 02:02:00,
2013-04-27 22:07:00,53.4,32.5,30.15,South,180,0.0,0.0,45,0.00,,,0.00,WUHU21623XXSP,2013-04-28 02:07:00,
2013-04-27 22:12:00,53.4,32.5,30.15,South,180,0.0,0.0,45,0.00,,,0.00,WUHU21623XXSP,2013-04-28 02:12:00,
2013-04-27 22:17:00,53.2,32.3,30.15,South,180,0.0,0.0,45,0.00,,,0.00,WUHU21623XXSP,2013-04-28 02:17:00,
2013-04-27 22:22:00,52.9,32.0,30.15,South,180,0.0,0.0,45,0.00,,,0.00,WUHU21623XXSP,2013-04-28 02:22:00,
2013-04-27 22:27:00,52.7,32.4,30.15,South,180,0.0,0.0,46,0.00,,,0.00,WUHU21623XXSP,2013-04-28 02:27:00,
2013-04-27 22:32:00,52.5,32.2,30.15,South,180,0.0,0.0,46,0.00,,,0.00,WUHU21623XXSP,2013-04-28 02:32:00,
2013-04-27 22:37:00,52.3,32.6,30.15,South,180,0.0,0.0,47,0.00,,,0.00,WUHU21623XXSP,2013-04-28 02:37:00,
2013-04-27 22:42:00,52.0,32.5,30.15,South,180,2.9,2.9,47,0.00,,,0.00,WUHU21623XXSP,2013-04-28 02:42:00,
2013-04-27 22:47:00,52.0,32.8,30.14,South,180,0.0,2.9,48,0.00,,,0.00,WUHU21623XXSP,2013-04-28 02:47:00,
2013-04-27 22:52:00,51.8,33.2,30.14,South,180,2.9,3.6,49,0.00,,,0.00,WUHU21623XXSP,2013-04-28 02:52:00,
2013-04-27 22:57:00,52.0,34.0,30.14,South,180,2.5,3.6,50,0.00,,,0.00,WUHU21623XXSP,2013-04-28 02:57:00,
2013-04-27 23:02:00,52.0,34.0,30.14,SSE,157,4.5,4.5,50,0.00,,,0.00,WUHU21623XXSP,2013-04-28 03:02:00,
2013-04-27 23:07:00,52.2,34.1,30.14,South,180,4.9,4.9,50,0.00,,,0.00,WUHU21623XXSP,2013-04-28 03:07:00,
2013-04-27 23:12:00,52.3,34.7,30.14,South,180,0.0,4.9,51,0.00,,,0.00,WUHU21623XXSP,2013-04-28 03:12:00,
2013-04-27 23:17:00,52.3,34.7,30.14,South,180,3.8,4.9,51,0.00,,,0.00,WUHU21623XXSP,2013-04-28 03:17:00,
2013-04-27 23:22:00,52.5,34.9,30.14,South,180,3.4,3.8,51,0.00,,,0.00,WUHU21623XXSP,2013-04-28 03:22:00,
2013-04-27 23:27:00,52.5,34.9,30.13,South,180,6.5,6.5,51,0.00,,,0.00,WUHU21623XXSP,2013-04-28 03:27:00,
2013-04-27 23:32:00,52.5,34.4,30.13,South,180,6.5,6.5,51,0.00,,,0.00,WUHU21623XXSP,2013-04-28 03:32:00,
2013-04-27 23:37:00,52.7,35.1,30.13,SSE,157,7.8,7.8,51,0.00,,,0.00,WUHU21623XXSP,2013-04-28 03:37:00,
2013-04-27 23:42:00,52.7,35.1,30.13,SSE,157,2.7,7.8,51,0.00,,,0.00,WUHU21623XXSP,2013-04-28 03:42:00,
2013-04-27 23:47:00,52.7,35.1,30.13,South,180,5.8,7.8,51,0.00,,,0.00,WUHU21623XXSP,2013-04-28 03:47:00,
2013-04-27 23:52:00,52.7,35.1,30.12,South,180,1.8,6.9,51,0.00,,,0.00,WUHU21623XXSP,2013-04-28 03:52:00,
2013-04-27 23:57:00,52.7,35.1,30.12,South,180,1.8,1.8,51,0.00,,,0.00,WUHU21623XXSP,2013-04-28 03:57:00,